Location: Hackington
(51.2833°N, 1.0833°E)
Time: 00:08:56
(UTC+00:00)

Daily predictions for brighter satellites

Satellite Brightness Start Highest point End
(mag) Time Altitude Azimuth Time Altitude Azimuth Time Altitude Azimuth
Cosmos 1943 Rocket 4.4 03:12:50 21° ENE 03:12:50 21° ENE 03:14:54 10° NE
CENTAUR R/B 3.2 03:44:24 53° ENE 03:44:24 53° ENE 03:50:09 10° NE
Cosmos 2278 Rocket 4.3 03:51:48 17° NNE 03:51:48 17° NNE 03:53:06 10° NNE
NOSS 3-2 (A) 3.9 04:04:16 55° NE 04:04:16 55° NE 04:09:27 10° NE
NOSS 3-2 (C) 3.6 04:12:49 68° E 04:12:49 68° E 04:18:58 10° NE
Meteor 2-3 Rocket 4.3 04:20:25 51° NNE 04:20:25 51° NNE 04:24:43 10° NNE
BREEZE-M DEB (TANK) 4.3 04:21:03 34° SSE 04:21:03 34° SSE 04:28:04 10° SE
Cosmos 968 Rocket 4.1 04:27:18 48° NE 04:27:18 48° NE 04:31:00 10° NNE
Cosmos 2297 Rocket 4.3 04:25:42 15° N 04:28:07 19° NNE 04:32:02 10° ENE
Cosmos 2098 Rocket 4.0 04:32:19 24° SSE 04:34:47 51° E 04:40:03 10° NNE
Cosmos 2344 3.4 04:34:44 63° W 04:35:44 70° NW 04:43:56 10° NE
Cosmos 2369 Rocket 2.4 04:34:16 47° S 04:35:44 66° ESE 04:41:19 10° NE
USA 238 DEB 3.5 04:39:34 69° WSW 04:40:22 80° NW 04:47:23 10° NE
USA 238 3.5 04:39:38 69° WSW 04:40:28 80° NW 04:47:29 10° NE
SL-19 R/B 4.2 04:35:01 10° SSE 04:40:36 89° ENE 04:41:27 66° NNW
Cosmos 2279 Rocket 4.2 04:34:31 10° N 04:40:44 70° ENE 04:46:54 10° SSE
Cosmos 1656 Rocket 4.2 04:37:55 20° S 04:41:32 54° ESE 04:46:51 10° NE
COSMO-SKYMED 1 3.0 04:38:48 10° SSE 04:42:51 60° E 04:42:51 60° E
H-2A R/B 4.3 04:39:44 10° NNE 04:46:53 10° S 04:42:13 32° ENE
USA 215 3.2 04:38:42 10° ESE 04:45:15 86° NNE 04:46:50 56° WNW
Cosmos 1943 Rocket 2.6 04:54:24 47° NNW 04:54:24 47° NNW 04:58:58 10° NNE
CZ-2C R/B 2.6 04:49:15 10° SSE 04:54:43 82° ENE 04:57:37 28° N
Kosmos-917 4.2 04:57:03 64° NE 04:57:03 64° NE 05:01:45 10° NE
Cosmos 1634 Rocket 3.9 04:58:14 46° NW 04:59:52 61° W 05:05:57 10° S
Gblst 52 Del rocket 4.4 04:59:59 56° W 05:01:26 89° S 05:08:19 10° E
Cosmos 2227 Rocket 4.1 05:00:33 13° N 05:04:13 22° NE 05:08:33 10° E
Cosmos 1862 3.4 05:07:19 65° NNE 05:07:19 65° NNE 05:10:47 10° NNE
SKYMED 3 4.4 05:02:50 10° SSE 05:07:11 81° WSW 05:07:15 81° W
Cosmos 1515 Rocket 4.0 05:06:35 22° N 05:09:14 60° ENE 05:13:32 10° SSE
Landsat 5 3.6 05:06:27 10° SSE 05:10:57 86° ENE 05:12:33 40° NNW
SJ 16-02 3.4 05:09:28 10° SSE 05:13:15 29° E 05:17:01 10° NE
Tsikada Rocket 4.2 05:16:30 42° W 05:17:12 44° WNW 05:23:13 10° N
BREEZE-M DEB (TANK) 2.8 05:16:52 63° SSW 05:17:12 69° S 05:23:59 10° E
Meteor 2-8 Rocket 4.3 05:16:37 10° NNW 05:22:47 76° W 05:28:52 10° S
COSMOS 2487 3.6 05:23:41 28° NNE 05:24:53 38° ENE 05:28:03 10° SE
Cosmos 2297 4.3 05:26:26 35° NW 05:26:33 35° NW 05:31:46 10° NNE
CZ-4C R/B 2.9 05:23:49 10° SSE 05:26:28 61° S 05:26:28 61° S
SJ-12 3.8 05:25:21 10° N 05:29:29 66° WNW 05:33:35 10° SSW
SKYMED 2 3.7 05:27:00 10° S 05:31:11 48° W 05:31:28 47° W
CZ-2C R/B 4.1 05:26:38 10° NNE 05:31:20 45° E 05:36:11 10° S
MOS 1-B Rocket 4.2 05:26:08 10° SSW 05:31:50 41° W 05:33:51 31° NW
Cosmos 2180 Rocket 4.4 05:26:47 10° NNW 05:32:56 68° W 05:38:59 10° S
Cosmos 783 Rocket 4.4 05:31:02 33° NW 05:33:18 62° WSW 05:38:25 10° S
Cosmos 2278 Rocket 4.0 05:33:39 15° NNW 05:33:39 15° NNW 05:36:33 10° N
CENTAUR R/B 3.1 05:31:36 33° WNW 05:34:06 46° NNW 05:41:28 10° NE
FALCON 9 DEB 3.1 05:37:32 54° NNE 05:37:32 54° NNE 05:40:09 10° E
CZ-4B R/B 4.0 05:35:55 10° NNE 05:39:17 39° E 05:42:40 10° S
FALCON 9 DEB 2.9 05:40:01 57° NNE 05:40:01 57° NNE 05:42:41 10° E
FALCON 9 DEB 2.9 05:40:11 59° NNE 05:40:11 59° NNE 05:42:52 10° E
Cosmos 1503 Rocket 3.9 05:34:52 10° SSW 05:40:09 75° WNW 05:45:33 10° NNE
Meteor 1-27 Rocket 3.7 05:34:30 10° NNW 05:40:11 87° W 05:45:57 10° S
ATLAS 5 CENTAUR R/B 2.9 05:37:08 10° S 05:40:42 37° ESE 05:44:43 10° NE
Meteor PRIRODA 4.5 05:40:37 10° NNE 05:44:10 51° E 05:47:42 10° S
H-2A R/B 2.5 05:40:43 10° SSE 05:44:58 64° ENE 05:49:22 10° N
Cosmos 1486 Rocket 4.3 05:44:08 21° WSW 05:47:19 43° WNW 05:52:22 10° NNE
Cosmos 1777 Rocket 4.4 05:42:23 10° S 05:47:33 66° ESE 05:52:46 10° NNE
USA 32 4.4 05:42:22 10° N 05:47:37 66° E 05:52:49 10° SSE
Cosmos 773 Rocket 4.1 05:45:01 25° NW 05:47:49 53° WSW 05:52:50 10° S
Lacrosse 4 Rocket 3.5 05:46:32 12° NNW 05:49:41 22° NE 05:53:12 10° E
Cosmos 1515 3.9 05:48:47 10° N 05:52:35 70° ENE 05:56:23 10° SSE
NOSS 3-2 (A) 4.3 05:51:40 25° WNW 05:54:28 36° NNW 06:00:58 10° NE
SL-27 R/B 3.0 05:54:53 36° W 05:55:16 37° WSW 05:58:34 10° S
Cosmos 1340 Rocket 3.1 05:52:04 10° S 05:56:00 70° E 06:00:01 10° NNE
Okean 3 Rocket 4.0 05:52:23 10° SW 05:56:39 39° WNW 06:00:57 10° N
Cosmos 1766 Rocket 4.2 05:55:40 10° SW 05:59:33 32° WNW 06:03:28 10° N
Envisat 3.3 05:57:22 10° N 06:02:08 42° WNW 06:06:53 10° SW
NOSS 3-2 (C) 4.0 06:00:16 22° W 06:03:47 41° NNW 06:10:25 10° NE
FALCON 9 DEB 2.8 06:03:14 39° NW 06:04:03 60° N 06:06:54 10° E
ATLAS 3B R/B 3.3 05:57:49 10° SSW 06:04:12 58° SE 06:10:56 10° NE
DMSP B5D2-2 4.0 05:59:19 10° S 06:04:28 63° WSW 06:09:40 10° NNW
Cosmos 158 Rocket 3.9 06:04:32 13° NNW 06:09:12 73° WSW 06:14:25 10° SSE
Cosmos 1939 Rocket 3.1 06:09:12 10° NNE 06:13:09 71° ESE 06:17:01 10° S
Cosmos 2297 Rocket 2.6 06:07:41 10° NNW 06:13:20 62° NE 06:18:57 10° SE
FALCON 9 DEB 3.2 06:13:36 25° WNW 06:15:21 63° N 06:18:44 10° E
Cosmos 2098 Rocket 4.4 06:12:46 11° WSW 06:16:18 24° WNW 06:20:44 10° N
H-2A R/B 3.9 06:14:20 10° NNW 06:17:10 21° WNW 06:17:12 21° WNW
Cosmos 1174 3.2 06:14:36 10° SSW 06:17:33 78° SE 06:20:49 10° NE
Meteor 1-31 Rocket 3.6 06:14:44 10° N 06:18:07 28° WNW 06:21:29 10° SW
COSMO-SKYMED 1 4.0 06:16:39 10° SW 06:19:38 18° W 06:20:04 18° W
Cosmos 2369 Rocket 3.0 06:16:09 14° W 06:20:13 30° NW 06:25:09 10° NNE
Cosmos 1607 3.9 06:17:00 14° NW 06:22:30 74° SW 06:28:38 10° SSE
Cosmos 1656 Rocket 4.2 06:20:29 10° WSW 06:25:23 34° NW 06:30:21 10° NNE
CZ-4B R/B 1.3 06:22:47 10° SSE 06:26:05 88° E 06:29:21 10° NNW
Okean 1 3.2 06:24:19 10° NNW 06:28:17 85° W 06:32:14 10° S
USA 215 3.9 06:22:39 10° SSE 06:28:42 40° SW 06:34:11 13° WNW
Cosmos 1408 Rocket 4.2 06:28:08 10° SW 06:31:58 31° WNW 06:35:50 10° N
USA 238 DEB 4.4 06:27:02 14° W 06:32:17 36° NNW 06:38:48 10° NE
USA 238 4.4 06:27:06 14° W 06:32:23 36° NNW 06:38:54 10° NE
CZ-2D R/B 4.0 06:28:49 10° NNE 06:32:34 55° E 06:36:17 10° S
Cosmos 2263 Rocket 4.0 06:30:40 10° NNW 06:35:03 23° NE 06:39:27 10° E
Meteor 1-18 Rocket 4.4 06:29:40 10° NNW 06:35:35 88° ENE 06:41:21 10° SSE
CZ-2C R/B 4.0 06:32:00 10° SW 06:35:39 18° W 06:39:07 10° NW
NOAA 12 4.1 06:31:58 10° N 06:37:13 67° WNW 06:42:24 10° SSW
Cosmos 1943 Rocket 3.7 06:35:57 13° WNW 06:38:33 17° NNW 06:42:08 10° N
FengYun 1-2 T 4.2 06:33:07 10° NNE 06:38:39 81° WNW 06:44:08 10° SSW
Nadezhda 4 Rocket 4.2 06:33:17 10° SW 06:39:12 46° WNW 06:45:14 10° N
Cosmos 2228 Rocket 3.4 06:36:31 10° NNW 06:40:49 46° W 06:45:09 10° SSW
Cosmos 1743 Rocket 3.9 06:37:31 10° SW 06:41:42 43° WNW 06:45:52 10° N
Cosmos 724 4.4 06:35:57 10° NW 06:41:55 82° NE 06:47:43 10° SE
Alouette 2 Rocket 4.2 06:41:21 10° NW 06:44:37 27° W 06:47:42 10° SSW
CORIOLIS 4.3 06:39:13 10° NNE 06:44:43 86° ESE 06:50:10 10° SSW
Meteor 2-4 Rocket 4.0 06:40:00 10° N 06:45:58 81° ENE 06:51:50 10° SSE
Cosmos 1378 4.1 06:44:24 10° N 06:48:02 48° ENE 06:51:40 10° SSE
Cosmos 2227 Rocket 2.3 06:43:30 10° NNW 06:49:12 79° ENE 06:54:51 10° SSE
ADEOS 4.2 06:46:54 10° N 06:51:35 34° WNW 06:56:13 10° SW
SJ 16-02 1.8 06:47:36 10° SW 06:51:42 38° WNW 06:55:49 10° N
Cosmos 2344 4.4 06:44:45 10° WNW 06:51:45 38° N 07:00:13 10° ENE
Cosmos 1666 Rocket 3.8 06:48:24 10° S 06:52:52 77° E 06:57:22 10° NNE
Cosmos 1428 Rocket 4.5 06:50:32 10° SSW 06:56:36 62° WNW 07:02:40 10° N
Cosmos 1092 Rocket 4.1 06:50:38 10° SSW 06:56:47 56° WNW 07:03:02 10° N
Meteor 1-20 Rocket 4.4 06:52:34 10° SSW 06:58:03 53° WNW 07:03:40 10° N
Meteor 1-19 Rocket 4.4 06:53:05 10° NNW 06:58:28 49° W 07:03:42 10° SSW
Cosmos 1602 4.2 06:55:37 10° SW 06:59:11 38° WNW 07:02:47 10° N
COSMOS 2487 4.0 06:56:59 10° WNW 06:59:15 17° W 07:01:31 10° SW
ARGOS 4.2 06:55:18 10° NNE 07:00:33 51° E 07:05:45 10° S
CZ-4B DEB 4.2 06:55:49 10° NNE 07:01:19 87° WNW 07:06:46 10° SSW
BREEZE M DEB (TANK) 3.2 06:59:07 10° W 07:01:34 27° SSW 07:03:24 10° SE
Cosmos 1656 4.2 06:56:27 10° SSW 07:01:48 64° ESE 07:07:12 10° NE
Cosmos 1689 Rocket 3.1 07:00:22 10° SE 07:02:50 39° ENE 07:05:19 10° N
CZ-4 R/B 3.8 07:01:15 10° NE 07:04:32 25° E 07:07:46 10° SSE
PSLV R/B 3.8 07:02:37 10° N 07:06:32 64° WNW 07:10:29 10° SSW
AQUARIUS 4.4 07:06:06 10° N 07:10:27 49° WNW 07:14:47 10° SW
CZ-2C R/B 3.7 07:06:52 10° N 07:11:05 30° WNW 07:15:25 10° WSW
SMAP 3.4 07:07:04 10° N 07:11:31 44° WNW 07:15:55 10° SW
